{"data":{"norad_id":65086,"epoch":"2026-05-24T23:17:25.476000Z","epoch_age_seconds":76988,"freshness":"FRESH","line1":"1 65086U 25167J   26144.97043375  .00017643  00000+0  60656-3 0  9997","line2":"2 65086  53.1591  32.7131 0001352  94.2630 265.8525 15.30190010 45151","mean_motion":15.3019001,"eccentricity":0.0001352,"inclination_deg":53.1591,"raan_deg":32.7131,"arg_perigee_deg":94.263,"mean_anomaly_deg":265.8525,"bstar":0.00060656,"rev_number":4515,"period_min":94.105960082696,"perigee_km":474.3183206883,"apogee_km":476.17147515349,"semimajor_km":6853.3818979209,"source":"CELESTRAK","updated_at":"2026-05-25T13:38:20.683707Z"}}